Orbital Elements at Epoch 2459200.5 (2020-Dec-17.0) TDB
Reference: JPL 31 (heliocentric ecliptic J2000)
Element | Value | Uncertainty (1-sigma) | Units |
e | .2125810318786006 | 3.9397e-08 | |
a | 3.196035359356235 | 1.4774e-08 | au |
q | 2.516618864743793 | 1.2505e-07 | au |
i | 1.940356655422672 | 3.935e-06 | deg |
node | 50.86511656526961 | 0.0001332 | deg |
peri | 341.5475670505767 | 0.00013352 | deg |
M | 123.1178937913118 | 1.0216e-05 | deg |
tp | 2458486.769153757295 (2019-Jan-03.26915376) | 5.7174e-05 | TDB |
period | 2086.968000629538 5.71 | 1.4471e-05 3.962e-08 | d yr |
n | .1724990512031834 | 1.1961e-09 | deg/d |
Q | 3.875451853968678 | 1.7915e-08 | au |
|
| | Orbit Determination Parameters
Additional Information
|